Thermal, CA

5:10 PM PDT on July 20, 2017 (GMT -0700)
Desert Resorts Regional

Weather History for KTRM - January, 2014

Change the Weather History Date:

Wednesday, January 15, 2014

  Actual Average Record
Temperature  
Mean Temperature 64 °F 55 °F  
Max Temperature 85 °F 72 °F 87 °F (1976)
Min Temperature 43 °F 38 °F 20 °F (2007)
Degree Days  
Heating Degree Days 1 10  
Month to date heating degree days 143 165  
Since 1 July heating degree days 618 703  
Cooling Degree Days 0 0  
Month to date cooling degree days 0 0  
Year to date cooling degree days 0 0  
Growing Degree Days 14 (Base 50)    
Moisture  
Dew Point 20 °F    
Average Humidity 20    
Maximum Humidity 31    
Minimum Humidity 8    
Precipitation  
Precipitation 0.00 in 0.02 in 0.29 in (1993)
Month to date precipitation 0.00 0.34  
Year to date precipitation 0.00 0.34  
Since 1 July precipitation 1.47  
Snow  
Snow 0.00 in - - ()
Month to date snowfall 0.0  
Year to date snowfall 0.0  
Snow Depth 0.00 in    
Sea Level Pressure  
Sea Level Pressure 30.21 in    
Wind  
Wind Speed 5 mph (North)    
Max Wind Speed 9 mph    
Max Gust Speed 12 mph    
Visibility 10 miles    
Events      
T = Trace of Precipitation, MM = Missing Value Source: NWS Daily Summary

Daily Weather History Graph

Daily Weather History Graph

Search for Another Location

Airport or City:

Trip Planner

Search our weather history database for the weather conditions in past years. The results will help you decide how hot, cold, wet, or windy it might be!

Date:

Astronomy

Jan. 15, 2014 Rise Set
Actual Time 6:49 AM PST 4:59 PM PST
Civil Twilight 6:22 AM PST 5:26 PM PST
Nautical Twilight 5:51 AM PST 5:57 PM PST
Astronomical Twilight 5:21 AM PST 6:27 PM PST
Moon 4:58 PM PST (1/15) 6:10 AM PST (1/15)
Length of Visible Light 11h 04m
Length of Day
10h 10m
Full, 100% of the Moon is Illuminated
Jan 15
Full
Jan 15
Full
Jan 23
Last Quarter
Jan 30
New
Feb 6
First Quarter

Hourly Weather History & Observations

Time (PST) Temp. Windchill Dew Point Humidity Pressure Visibility Wind Dir Wind Speed Gust Speed Precip Events Conditions
12:52 AM 55.0 °F - 15.1 °F 21% 30.25 in 10.0 mi NNE 4.6 mph - N/A   Clear
1:52 AM 48.0 °F - 16.0 °F 28% 30.26 in 10.0 mi NNW 3.5 mph - N/A   Clear
2:52 AM 46.0 °F 44.8 °F 18.0 °F 33% 30.27 in 10.0 mi North 3.5 mph - N/A   Clear
3:52 AM 48.0 °F - 18.0 °F 30% 30.27 in 10.0 mi NNE 4.6 mph - N/A   Clear
4:52 AM 46.9 °F - 17.1 °F 30% 30.27 in 10.0 mi North 5.8 mph - N/A   Clear
5:52 AM 50.0 °F - 18.0 °F 28% 30.27 in 10.0 mi North 4.6 mph - N/A   Clear
6:52 AM 57.0 °F - 17.1 °F 21% 30.27 in 10.0 mi NNE 9.2 mph - N/A   Clear
7:52 AM 62.1 °F - 18.0 °F 18% 30.29 in 10.0 mi NNE 5.8 mph - N/A   Clear
8:52 AM 69.1 °F - 18.0 °F 14% 30.29 in 10.0 mi North 4.6 mph - N/A   Clear
9:52 AM 77.0 °F - 16.0 °F 10% 30.29 in 10.0 mi Variable 3.5 mph - N/A   Clear
10:52 AM 79.0 °F - 17.1 °F 10% 30.27 in 10.0 mi NW 3.5 mph - N/A   Clear
11:52 AM 81.0 °F - 21.9 °F 11% 30.23 in 10.0 mi Variable 4.6 mph - N/A   Clear
12:52 PM 82.9 °F - 17.1 °F 9% 30.19 in 10.0 mi Variable 3.5 mph - N/A   Clear
1:52 PM 84.0 °F - 16.0 °F 8% 30.17 in 10.0 mi WNW 8.1 mph - N/A   Clear
2:52 PM 84.0 °F - 15.1 °F 8% 30.15 in 10.0 mi West 6.9 mph - N/A   Clear
3:52 PM 80.1 °F - 23.0 °F 12% 30.15 in 10.0 mi SSE 5.8 mph - N/A   Clear
4:52 PM 68.0 °F - 25.0 °F 20% 30.14 in 10.0 mi Calm Calm - N/A   Clear
5:52 PM 60.1 °F - 24.1 °F 25% 30.14 in 10.0 mi Calm Calm - N/A   Clear
6:52 PM 52.0 °F - 27.0 °F 38% 30.15 in 10.0 mi Calm Calm - N/A   Clear
7:52 PM 50.0 °F - 27.0 °F 41% 30.15 in 10.0 mi Calm Calm - N/A   Clear
8:52 PM 51.1 °F - 30.9 °F 46% 30.15 in 10.0 mi NNE 4.6 mph - N/A   Clear
9:52 PM 50.0 °F - 26.1 °F 39% 30.16 in 10.0 mi NNW 3.5 mph - N/A   Clear
10:52 PM 44.1 °F 42.5 °F 26.1 °F 49% 30.14 in 10.0 mi North 3.5 mph - N/A   Clear
11:52 PM 46.0 °F 43.9 °F 24.1 °F 42% 30.14 in 10.0 mi North 4.6 mph - N/A   Clear